User: anonymous   Login
Location: Caltech
(34.1382°N, 118.1253°W)
Time: 15:58:47
(UTC-08:00)
Language:

Cosmos 1626 - Orbit

View from above orbital plane
View from above orbital plane
View from above satellite
View from above satellite

Ground track
Ground track

The orbit data is extracted from the following two-line orbital elements,

1 15494U 85009A   17326.56724721 +.00001628 +00000-0 +68286-4 0  9999
2 15494 082.4799 091.1934 0001897 178.6420 181.4822 15.22806411792581
Epoch (UTC): 22 November 2017 13:36:50
Eccentricity: 0.0001897
inclination: 82.4799°
perigee height: 496 km
apogee height: 498 km
right ascension of ascending node: 91.1934°
argument of perigee: 178.6420°
revolutions per day: 15.22806411
mean anomaly at epoch: 181.4822°
orbit number at epoch: 79258

The dashed part of the orbit path shows where the satellite is in the earth's shadow,  

DLR